| time (UTC) | temp C | wind direction | speed KPH | gust KPH | rain 1hr cm | rain 24hr cm | rain mn cm | humidity % | barometer mb |
| 20260508231505 | 15 | 200 | 3.2 | 16.1 | 0.00 | 0.00 | 0.00 | 62 | 1007.6 |
| 20260508230007 | 16 | 208 | 8.0 | 22.5 | 0.00 | 0.00 | 0.00 | 59 | 1007.6 |
| 20260508224503 | 16 | 219 | 9.7 | 19.3 | 0.00 | 0.00 | 0.00 | 58 | 1007.7 |
| 20260508223005 | 17 | 236 | 4.8 | 19.3 | 0.00 | 0.00 | 0.00 | 61 | 1007.7 |
| 20260508221509 | 17 | 227 | 6.4 | 16.1 | 0.00 | 0.00 | 0.00 | 60 | 1007.9 |
| 20260508220012 | 16 | 261 | 6.4 | 20.9 | 0.00 | 0.00 | 0.00 | 55 | 1007.9 |
| 20260508214504 | 17 | 217 | 6.4 | 16.1 | 0.00 | 0.00 | 0.00 | 48 | 1007.9 |
| 20260508213007 | 17 | 230 | 8.0 | 22.5 | 0.00 | 0.00 | 0.00 | 49 | 1007.9 |
| 20260508211506 | 16 | 203 | 3.2 | 16.1 | 0.00 | 0.00 | 0.00 | 52 | 1008.1 |
| 20260508210007 | 16 | 193 | 4.8 | 20.9 | 0.00 | 0.00 | 0.00 | 49 | 1008.1 |
| 20260508204510 | 16 | 221 | 3.2 | 19.3 | 0.00 | 0.00 | 0.00 | 47 | 1008.2 |
| 20260508203012 | 16 | 207 | 1.6 | 12.9 | 0.00 | 0.00 | 0.00 | 52 | 1008.4 |
| 20260508201510 | 17 | 218 | 8.0 | 24.1 | 0.00 | 0.00 | 0.00 | 48 | 1008.7 |
| 20260508200008 | 18 | 267 | 6.4 | 19.3 | 0.00 | 0.00 | 0.00 | 46 | 1008.6 |
| 20260508194512 | 17 | 182 | 9.7 | 24.1 | 0.00 | 0.00 | 0.00 | 46 | 1008.9 |
| 20260508193011 | 17 | 228 | 9.7 | 24.1 | 0.00 | 0.00 | 0.00 | 45 | 1009.0 |
| 20260508191511 | 16 | 268 | 1.6 | 11.3 | 0.00 | 0.00 | 0.00 | 59 | 1009.3 |
| 20260508190011 | 16 | 153 | 1.6 | 12.9 | 0.00 | 0.00 | 0.00 | 54 | 1009.6 |
| 20260508184512 | 17 | 227 | 6.4 | 20.9 | 0.00 | 0.00 | 0.00 | 52 | 1009.8 |
| 20260508183016 | 16 | 247 | 4.8 | 12.9 | 0.00 | 0.00 | 0.00 | 55 | 1009.8 |
| 20260508181516 | 16 | 210 | 1.6 | 16.1 | 0.00 | 0.00 | 0.00 | 54 | 1010.1 |
| 20260508180011 | 16 | 236 | 6.4 | 19.3 | 0.00 | 0.00 | 0.00 | 51 | 1010.2 |
| 20260508174528 | 16 | 214 | 4.8 | 19.3 | 0.00 | 0.00 | 0.00 | 56 | 1010.4 |
| 20260508173013 | 15 | 215 | 6.4 | 17.7 | 0.00 | 0.00 | 0.00 | 53 | 1010.7 |
| 20260508171514 | 15 | 186 | 3.2 | 12.9 | 0.00 | 0.00 | 0.00 | 51 | 1011.0 |
| 20260508170018 | 15 | 182 | 3.2 | 17.7 | 0.00 | 0.00 | 0.00 | 52 | 1011.3 |
| 20260508164514 | 15 | 265 | 3.2 | 11.3 | 0.00 | 0.00 | 0.00 | 52 | 1011.7 |
| 20260508163034 | 15 | 279 | 1.6 | 12.9 | 0.00 | 0.00 | 0.00 | 54 | 1011.9 |
| 20260508161518 | 13 | 159 | 0.0 | 6.4 | 0.00 | 0.00 | 0.00 | 62 | 1011.9 |
| 20260508160024 | 13 | 163 | 3.2 | 9.7 | 0.00 | 0.00 | 0.00 | 65 | 1012.0 |
| 20260508154519 | 13 | 173 | 0.0 | 6.4 | 0.00 | 0.00 | 0.00 | 62 | 1012.0 |
| 20260508153025 | 13 | 230 | 0.0 | 6.4 | 0.00 | 0.00 | 0.00 | 64 | 1012.0 |
| 20260508151527 | 12 | 126 | 1.6 | 6.4 | 0.00 | 0.00 | 0.00 | 63 | 1012.1 |
| 20260508150027 | 12 | 11 | 0.0 | 8.0 | 0.00 | 0.00 | 0.00 | 65 | 1012.2 |
| 20260508144519 | 12 | 92 | 0.0 | 6.4 | 0.00 | 0.00 | 0.00 | 65 | 1012.2 |
| 20260508143020 | 12 | 322 | 1.6 | 8.0 | 0.00 | 0.00 | 0.00 | 67 | 1012.2 |
| 20260508141518 | 12 | 360 | 1.6 | 9.7 | 0.00 | 0.00 | 0.00 | 71 | 1012.5 |
| 20260508140004 | 11 | 5 | 0.0 | 9.7 | 0.00 | 0.00 | 0.00 | 73 | 1012.4 |
| 20260508134507 | 11 | 355 | 1.6 | 6.4 | 0.00 | 0.00 | 0.00 | 75 | 1012.5 |
| 20260508133011 | 11 | 24 | 3.2 | 8.0 | 0.00 | 0.00 | 0.00 | 77 | 1012.5 |
| 20260508131523 | 10 | 298 | 3.2 | 11.3 | 0.00 | 0.00 | 0.00 | 79 | 1012.7 |
| 20260508130019 | 10 | 360 | 0.0 | 8.0 | 0.00 | 0.00 | 0.00 | 81 | 1012.5 |
| 20260508124505 | 9 | 277 | 0.0 | 6.4 | 0.00 | 0.00 | 0.00 | 83 | 1012.4 |
| 20260508123032 | 8 | 227 | 3.2 | 9.7 | 0.00 | 0.00 | 0.00 | 84 | 1012.4 |
| 20260508121517 | 7 | 173 | 0.0 | 0.0 | 0.00 | 0.00 | 0.00 | 87 | 1012.2 |
| 20260508120016 | 6 | 173 | 0.0 | 0.0 | 0.00 | 0.00 | 0.00 | 90 | 1012.2 |
| 20260508114521 | 6 | 173 | 0.0 | 0.0 | 0.00 | 0.00 | 0.00 | 93 | 1012.1 |
| 20260508113007 | 5 | 173 | 0.0 | 0.0 | 0.00 | 0.00 | 0.00 | 94 | 1012.1 |
| 20260508111511 | 3 | 173 | 0.0 | 0.0 | 0.00 | 0.00 | 0.00 | 94 | 1011.8 |
| 20260508110013 | 3 | 173 | 0.0 | 3.2 | 0.00 | 0.00 | 0.00 | 93 | 1011.7 |
| 20260508104520 | 3 | 173 | 0.0 | 1.6 | 0.00 | 0.00 | 0.00 | 92 | 1011.6 |
| 20260508103021 | 4 | 173 | 0.0 | 0.0 | 0.00 | 0.00 | 0.00 | 93 | 1011.3 |
| 20260508101535 | 4 | 173 | 0.0 | 0.0 | 0.00 | 0.00 | 0.00 | 93 | 1011.4 |
| 20260508100014 | 4 | 173 | 0.0 | 1.6 | 0.00 | 0.00 | 0.00 | 92 | 1011.5 |
| 20260508094519 | 4 | 173 | 0.0 | 0.0 | 0.00 | 0.00 | 0.00 | 92 | 1011.6 |
| 20260508093040 | 4 | 173 | 0.0 | 1.6 | 0.00 | 0.00 | 0.00 | 93 | 1011.8 |
| 20260508091525 | 4 | 173 | 0.0 | 1.6 | 0.00 | 0.00 | 0.00 | 92 | 1011.6 |
| 20260508090034 | 3 | 173 | 0.0 | 0.0 | 0.00 | 0.00 | 0.00 | 91 | 1011.5 |
| 20260508084516 | 4 | 173 | 0.0 | 0.0 | 0.00 | 0.00 | 0.00 | 91 | 1011.4 |
| 20260508083025 | 4 | 173 | 0.0 | 0.0 | 0.00 | 0.00 | 0.00 | 90 | 1011.5 |
| 20260508081523 | 4 | 173 | 0.0 | 0.0 | 0.00 | 0.00 | 0.00 | 88 | 1011.7 |
| 20260508080034 | 5 | 173 | 0.0 | 0.0 | 0.00 | 0.00 | 0.00 | 88 | 1011.8 |
| 20260508074535 | 5 | 173 | 0.0 | 1.6 | 0.00 | 0.00 | 0.00 | 87 | 1011.7 |
| 20260508073016 | 5 | 173 | 0.0 | 3.2 | 0.00 | 0.00 | 0.00 | 89 | 1011.7 |
| 20260508071525 | 5 | 173 | 0.0 | 4.8 | 0.00 | 0.00 | 0.00 | 90 | 1011.8 |
| 20260508070026 | 4 | 173 | 0.0 | 0.0 | 0.00 | 0.00 | 0.00 | 89 | 1011.9 |
| 20260508064527 | 4 | 173 | 0.0 | 1.6 | 0.00 | 0.00 | 0.00 | 88 | 1012.0 |
| 20260508063031 | 4 | 173 | 0.0 | 1.6 | 0.00 | 0.00 | 0.00 | 87 | 1012.1 |
| 20260508061518 | 5 | 173 | 0.0 | 1.6 | 0.00 | 0.00 | 0.00 | 86 | 1012.1 |
| 20260508060022 | 5 | 173 | 0.0 | 3.2 | 0.00 | 0.00 | 0.00 | 85 | 1012.0 |
| 20260508054528 | 5 | 173 | 1.6 | 4.8 | 0.00 | 0.00 | 0.00 | 86 | 1012.1 |
| 20260508053028 | 4 | 173 | 0.0 | 3.2 | 0.00 | 0.00 | 0.00 | 89 | 1012.1 |
| 20260508051517 | 3 | 173 | 0.0 | 0.0 | 0.00 | 0.00 | 0.00 | 88 | 1012.3 |
| 20260508050022 | 4 | 173 | 0.0 | 0.0 | 0.00 | 0.00 | 0.00 | 87 | 1012.3 |
| 20260508044508 | 4 | 173 | 0.0 | 0.0 | 0.00 | 0.00 | 0.00 | 85 | 1012.2 |
| 20260508043007 | 5 | 173 | 0.0 | 0.0 | 0.00 | 0.00 | 0.00 | 83 | 1012.2 |
| 20260508041513 | 5 | 173 | 0.0 | 0.0 | 0.00 | 0.00 | 0.00 | 80 | 1012.2 |
| 20260508040020 | 6 | 173 | 0.0 | 1.6 | 0.00 | 0.00 | 0.00 | 78 | 1012.3 |
| 20260508034524 | 7 | 173 | 0.0 | 3.2 | 0.00 | 0.00 | 0.00 | 76 | 1012.3 |
| 20260508033034 | 7 | 173 | 0.0 | 4.8 | 0.00 | 0.00 | 0.00 | 74 | 1012.5 |
| 20260508031508 | 7 | 173 | 1.6 | 9.7 | 0.00 | 0.00 | 0.00 | 73 | 1012.6 |
| 20260508030014 | 8 | 223 | 1.6 | 6.4 | 0.00 | 0.00 | 0.00 | 70 | 1012.7 |
| 20260508024520 | 8 | 182 | 3.2 | 9.7 | 0.00 | 0.00 | 0.00 | 69 | 1012.9 |
| 20260508023036 | 8 | 216 | 4.8 | 11.3 | 0.00 | 0.00 | 0.00 | 68 | 1012.8 |
| 20260508021525 | 9 | 205 | 4.8 | 11.3 | 0.00 | 0.00 | 0.00 | 67 | 1012.7 |
| 20260508020009 | 9 | 229 | 4.8 | 14.5 | 0.00 | 0.00 | 0.00 | 66 | 1012.5 |
| 20260508014515 | 10 | 215 | 4.8 | 12.9 | 0.00 | 0.00 | 0.00 | 64 | 1012.8 |
| 20260508013020 | 10 | 206 | 6.4 | 19.3 | 0.00 | 0.00 | 0.00 | 60 | 1012.5 |
| 20260508011525 | 10 | 239 | 4.8 | 16.1 | 0.00 | 0.00 | 0.00 | 55 | 1012.3 |
| 20260508010037 | 10 | 217 | 0.0 | 4.8 | 0.00 | 0.00 | 0.00 | 53 | 1011.9 |
| 20260508004528 | 11 | 194 | 3.2 | 9.7 | 0.00 | 0.00 | 0.00 | 51 | 1011.8 |
| 20260508003020 | 11 | 242 | 3.2 | 11.3 | 0.00 | 0.00 | 0.00 | 48 | 1011.8 |
| 20260508001530 | 11 | 233 | 4.8 | 12.9 | 0.00 | 0.00 | 0.00 | 48 | 1011.6 |
| 20260508000025 | 11 | 259 | 0.0 | 4.8 | 0.00 | 0.00 | 0.00 | 47 | 1011.7 |
| 20260507234534 | 11 | 259 | 0.0 | 9.7 | 0.00 | 0.00 | 0.00 | 46 | 1011.7 |
| 20260507233015 | 11 | 242 | 0.0 | 6.4 | 0.00 | 0.00 | 0.00 | 46 | 1011.6 |